Tracking 32214 objects as of 19-Nov-2025
HD Live streaming from Space Station
objects crossing your sky now

STARLINK-30439

Track STARLINK-30439 now!
10-day predictions
STARLINK-30439 is classified as:


NORAD ID: 57867
Int'l Code: 2023-144D
Perigee: 565.7 km
Apogee: 566.7 km
Inclination: 43.0 °
Period: 95.8 minutes
Semi major axis: 6937 km
RCS: Unknown
Launch date: September 16, 2023
Source: United States (US)
Launch site: AIR FORCE EASTERN TEST RANGE (AFETR)
Your satellite tracking list
Your tracking list is empty




NASA's NSSDC Master Catalog

Two Line Element Set (TLE):
1 57867U 23144D   25322.85111913 -.00002637  00000-0 -18022-3 0  9996
2 57867  43.0009 170.0880 0000771 265.3212  94.7542 15.02538265120945
Source of the keplerian elements: AFSPC